Location: Saint Louis
(38.6272°N, 90.1978°W)
Time: 05:38:13
(UTC-05:00)

ISS - Pass Details

Date: 24 August 2013
Orbit: 401 x 404 km, 51.6° (Epoch: 24 July)

Event Time Altitude Azimuth Distance (km) Brightness Sun altitude
Rises 21:31:11 0° 302° (WNW) 2,314 2.1 -20.3°
Reaches altitude 10° 21:33:20 10° 294° (WNW) 1,453 0.6 -20.6°
Enters shadow 21:36:13 37° 233° (SW) 637 -2.3 -21.1°
